Wind_Speed
10 10 10 9 9 8 8 8 9 8 8 7 7 7 7 6 6 5 4 5 4 3 3 2 2 2 3 2 2 3 3 3 4 4 4 4 5 6 6 7 8 9 9
9 9 10 9 9 8 7 8 8 8 8 7 7 7 6 6 5 5 4 3 3 3 2 2 2 2 1 1 2 3 3 4 3 4 4 5 5 5 6 7 8 9 9
7 7 8 8 7 7 7 7 8 7 7 7 6 6 5 5 4 4 3 3 3 2 2 2 3 2 1 1 2 3 3 3 4 4 4 5 5 6 6 7 9 10 10
6 5 6 6 6 5 5 6 6 6 6 6 6 5 4 4 3 3 3 2 2 2 1 2 1 1 1 1 2 3 4 4 4 5 5 6 6 7 7 9 10 11 11
5 5 5 5 5 4 4 4 4 5 5 5 5 5 4 3 3 2 2 2 1 0 1 1 1 2 1 1 2 3 5 5 6 7 7 8 8 8 9 9 11 12 12
4 4 3 3 4 3 3 3 3 3 4 3 3 3 4 4 3 3 2 2 1 2 2 2 2 2 3 3 3 4 6 6 7 8 9 9 10 10 11 11 11 12 12
4 4 4 3 3 3 2 2 2 2 3 2 2 2 2 2 2 3 3 2 2 3 2 3 3 4 4 4 5 5 7 8 8 9 9 10 10 11 11 12 13 13 13
5 5 5 3 3 3 2 2 1 1 2 2 2 2 2 2 2 2 3 3 4 4 4 4 4 5 5 5 6 6 8 9 9 9 10 10 11 12 12 13 13 13 13
6 6 5 4 4 4 4 4 3 3 3 3 2 2 3 3 3 3 4 4 5 5 6 6 6 6 7 7 8 8 9 10 10 10 11 12 12 13 13 14 14 14 14
8 8 7 6 6 6 6 5 5 5 5 5 4 4 4 5 4 5 6 6 7 7 7 8 8 8 9 9 10 10 11 11 12 12 12 13 13 14 14 15 15 15 15
9 9 9 9 8 8 9 7 7 7 7 6 6 6 6 6 6 7 7 8 8 8 9 9 10 10 11 11 12 13 14 14 14 14 14 15 15 16 16 16 16 16 17
11 10 11 11 11 10 10 9 9 9 9 9 8 8 8 8 8 8 9 9 9 10 10 11 11 12 13 14 14 15 15 15 15 16 16 17 17 17 18 18 18 18 19
13 11 12 12 12 11 11 11 12 12 12 11 11 11 11 11 10 10 11 11 11 11 12 13 13 13 14 15 16 16 18 17 18 18 18 19 19 19 20 21 21 21 21
16 15 14 14 14 14 13 13 13 13 13 13 13 13 13 13 13 13 13 13 13 13 14 14 14 15 16 16 16 16 17 18 19 20 21 21 21 21 22 23 24 24 24
20 19 18 17 17 17 16 16 15 15 15 15 15 15 16 15 16 16 16 16 16 16 16 16 16 17 18 18 18 19 19 20 21 22 22 23 23 24 24 25 25 26 25
24 23 21 20 20 20 19 19 18 17 17 17 18 18 19 18 18 18 18 18 17 18 18 18 19 19 19 20 21 22 22 23 23 24 25 26 26 26 26 27 27 27 26
27 26 26 24 23 23 22 21 20 20 20 20 20 20 20 21 20 20 20 20 20 20 20 21 20 21 21 22 23 24 25 25 26 26 26 27 27 28 28 28 27 26 26
27 26 26 27 26 24 24 22 22 22 23 23 23 24 24 23 23 23 22 22 23 23 23 23 23 24 25 25 26 26 26 28 28 28 29 29 29 29 29 28 27 26 26
28 28 29 29 27 26 25 25 24 25 25 25 26 26 26 25 25 25 25 25 26 26 26 26 26 27 27 27 28 28 28 29 30 31 31 30 29 29 29 28 27 26 27
30 29 30 29 29 28 27 27 27 27 27 27 28 28 28 28 27 27 28 28 29 29 29 29 29 30 30 30 30 30 30 31 32 33 32 31 30 30 29 29 29 29 30
32 31 30 30 30 30 30 30 29 29 29 29 30 30 30 30 30 30 30 31 31 31 31 31 31 31 31 31 32 32 33 34 33 33 33 32 32 31 30 30 31 31 32
34 33 32 31 31 31 32 32 32 32 32 32 32 32 32 32 33 32 32 33 34 34 33 33 33 33 34 34 34 34 35 36 36 35 34 34 33 32 31 32 32 33 33
36 36 35 34 34 33 33 34 34 35 34 34 35 35 34 34 35 35 35 35 35 36 35 35 36 35 35 35 36 36 36 36 36 36 35 35 34 34 34 34 34 34 34
37 37 37 37 35 35 35 35 36 36 37 37 37 37 37 37 37 37 38 38 37 38 38 37 37 37 37 37 37 37 37 37 37 37 37 36 36 36 36 36 36 35 35
37 37 37 36 36 36 36 36 36 37 38 38 39 39 39 39 39 38 39 39 39 39 39 38 38 37 38 38 38 39 39 39 39 39 38 38 38 37 37 37 37 37 37
38 37 37 37 37 37 36 37 37 37 38 38 39 39 39 39 40 40 39 39 40 39 39 39 39 39 38 39 39 40 40 40 40 39 38 38 37 37 37 38 38 38 38
Wind_Direction
54 53 54 54 54 60 68 74 75 80 86 89 87 86 85 89 90 88 81 77 79 92 93 96 107 106 88 75 57 44 26 5 5 358 351 345 341 337 333 334 333 331 329
55 53 54 55 55 59 67 71 73 73 75 81 85 84 83 86 85 80 68 67 73 89 85 81 84 86 89 67 43 24 11 359 350 343 338 340 341 332 328 328 333 333 328
52 55 54 54 55 57 62 66 68 71 73 75 75 74 75 74 69 60 63 65 79 82 94 82 78 73 61 22 7 8 3 356 346 340 340 338 339 336 330 330 333 335 335
42 47 52 49 53 54 59 62 64 68 70 73 72 67 68 67 54 44 43 43 82 89 99 83 69 38 8 352 3 2 349 341 340 339 335 332 333 334 331 330 332 332 329
23 36 44 47 46 46 49 58 64 66 67 72 69 64 58 49 40 33 33 47 70 22 1 347 343 341 338 351 354 346 338 333 330 331 331 330 331 333 333 334 332 331 329
351 8 25 38 29 32 39 51 65 64 59 64 64 55 47 40 33 15 358 345 323 330 336 334 338 341 337 335 327 324 329 331 330 328 326 326 328 331 330 330 329 327 326
322 336 341 358 358 1 11 28 67 53 48 49 41 32 27 19 11 5 1 348 339 340 337 330 326 326 323 318 317 316 320 323 323 322 322 320 321 323 323 323 323 323 322
296 306 319 309 316 314 304 326 19 16 8 7 350 345 343 335 327 334 337 334 327 320 311 307 302 305 304 308 309 308 312 316 318 317 317 318 318 318 320 319 319 321 319
288 291 291 285 283 284 281 286 291 302 311 313 316 312 311 309 302 303 307 313 312 307 302 297 297 297 298 300 302 302 306 309 310 312 313 314 315 313 314 315 316 317 318
274 274 270 269 273 273 273 271 276 282 290 291 293 298 298 295 289 289 292 296 298 301 299 293 294 294 292 293 292 294 298 299 301 304 308 310 310 310 311 313 314 316 316
264 264 266 265 263 264 266 266 271 279 283 289 292 297 293 292 288 287 291 293 293 294 294 296 294 294 291 293 293 291 292 292 295 298 300 302 304 307 309 308 310 311 311
259 263 266 263 260 262 266 267 275 279 281 284 286 286 283 288 289 289 290 289 289 290 291 294 295 294 291 290 289 290 293 294 297 299 299 301 303 307 307 306 306 306 307
259 265 267 263 263 265 268 271 277 278 278 283 283 283 279 279 284 287 286 287 288 286 290 293 294 293 292 292 291 292 292 294 297 300 300 300 302 302 302 303 302 302 303
265 260 262 264 266 271 272 269 274 273 273 275 279 281 279 277 280 284 286 285 284 284 286 290 292 294 296 299 297 296 296 296 298 299 298 298 299 299 299 300 300 301 301
267 265 260 260 264 267 272 269 271 273 274 274 276 277 277 277 278 281 284 284 283 284 287 288 291 293 295 296 297 298 297 296 296 297 297 297 297 297 297 298 299 300 301
268 267 261 260 264 269 270 270 268 271 275 277 277 276 277 277 276 278 280 281 282 284 285 286 289 290 290 291 294 296 296 295 294 294 294 295 294 294 295 295 296 298 299
270 266 265 264 266 271 273 268 265 268 271 274 274 275 276 276 276 276 278 279 281 282 285 286 288 290 292 292 293 294 293 293 294 293 293 293 293 292 293 294 294 297 299
268 268 267 268 267 269 273 267 265 268 269 271 271 273 273 274 274 276 278 279 280 280 282 284 287 288 291 291 291 292 293 292 293 293 294 294 293 292 292 292 293 296 297
268 270 270 270 268 268 269 268 265 265 266 268 269 270 272 272 273 275 276 278 280 281 283 283 285 287 288 290 290 291 292 293 294 293 294 295 293 292 292 293 293 293 294
266 268 270 270 270 268 268 268 265 264 265 266 267 269 268 270 271 273 275 277 279 281 281 283 285 287 287 288 289 290 292 294 296 296 297 297 295 293 293 293 294 294 294
267 268 269 269 269 268 268 268 266 265 265 265 266 269 269 271 272 273 276 277 278 279 280 282 284 286 286 288 288 289 290 292 293 295 294 294 293 292 292 292 293 294 294
264 266 266 266 267 266 266 266 266 266 265 266 267 269 269 271 273 274 275 276 277 278 279 281 283 284 287 289 290 290 289 290 291 291 291 291 291 291 291 291 292 292 292
261 263 265 265 265 265 266 266 266 267 268 269 270 270 271 273 275 275 276 276 276 277 279 281 283 286 287 289 290 290 289 290 290 290 289 289 289 290 291 291 290 290 290
259 262 264 264 265 265 266 267 267 268 269 270 272 272 273 274 274 275 276 276 277 277 279 282 283 284 286 288 290 290 290 290 290 290 289 288 289 290 289 288 287 287 288
258 259 262 264 264 264 266 267 268 268 269 270 271 272 272 274 274 274 275 276 277 279 280 281 283 284 285 286 287 288 289 289 289 289 290 289 288 288 288 288 288 287 287
258 260 262 264 264 264 265 266 267 268 269 270 271 272 273 273 274 274 273 275 277 278 279 280 281 282 284 285 286 287 288 289 289 289 289 289 287 286 286 286 286 285 286
Height
5907 5906 5905 5904 5904 5903 5902 5902 5902 5901 5901 5901 5902 5902 5902 5901 5901 5901 5901 5901 5900 5900 5900 5900 5900 5900 5900 5900 5899 5899 5898 5898 5897 5896 5895 5894 5893 5892 5891 5889 5888 5886 5885
5908 5907 5907 5906 5905 5904 5904 5903 5903 5903 5903 5903 5903 5903 5902 5902 5902 5902 5901 5901 5901 5901 5901 5900 5900 5900 5900 5900 5899 5898 5898 5897 5896 5896 5895 5894 5893 5891 5890 5889 5887 5885 5883
5909 5908 5908 5907 5906 5906 5905 5905 5904 5904 5904 5904 5904 5903 5903 5903 5903 5902 5902 5901 5901 5901 5900 5900 5900 5899 5899 5899 5899 5898 5897 5897 5896 5895 5894 5893 5892 5891 5889 5887 5886 5884 5882
5909 5909 5908 5908 5907 5907 5906 5905 5905 5905 5905 5904 5904 5904 5903 5903 5903 5902 5902 5901 5901 5900 5900 5900 5899 5899 5898 5898 5898 5897 5896 5896 5895 5894 5893 5892 5891 5890 5888 5886 5884 5882 5880
5909 5909 5908 5908 5908 5907 5906 5906 5906 5905 5905 5905 5904 5904 5903 5903 5903 5902 5902 5901 5900 5900 5900 5899 5899 5898 5898 5897 5897 5896 5895 5894 5893 5892 5891 5890 5889 5888 5886 5885 5883 5880 5878
5908 5908 5908 5908 5907 5907 5906 5906 5906 5905 5905 5904 5904 5904 5903 5903 5902 5902 5901 5901 5900 5900 5899 5898 5898 5897 5897 5896 5895 5895 5894 5893 5892 5890 5889 5888 5886 5885 5884 5882 5880 5878 5876
5907 5907 5907 5907 5907 5907 5906 5905 5905 5905 5905 5904 5904 5903 5903 5902 5902 5901 5901 5900 5899 5898 5898 5897 5897 5896 5896 5895 5894 5893 5893 5891 5890 5889 5887 5886 5884 5883 5881 5879 5877 5876 5874
5905 5906 5906 5906 5906 5906 5905 5905 5905 5904 5904 5903 5903 5902 5902 5901 5901 5900 5900 5899 5898 5897 5897 5896 5895 5895 5894 5893 5892 5892 5891 5889 5888 5887 5885 5884 5882 5880 5878 5876 5874 5872 5870
5902 5903 5904 5904 5904 5904 5904 5904 5904 5904 5903 5903 5902 5901 5901 5900 5900 5899 5898 5898 5897 5896 5895 5894 5893 5893 5892 5891 5890 5889 5888 5887 5886 5884 5883 5881 5879 5877 5875 5873 5871 5869 5867
5900 5900 5901 5902 5902 5902 5902 5902 5902 5902 5901 5901 5900 5900 5899 5899 5898 5897 5897 5896 5895 5894 5893 5892 5891 5891 5890 5889 5888 5887 5885 5884 5883 5881 5880 5878 5875 5873 5871 5869 5868 5865 5863
5897 5897 5898 5898 5898 5898 5899 5899 5900 5899 5899 5898 5898 5898 5897 5896 5896 5895 5894 5893 5893 5892 5891 5890 5889 5888 5887 5886 5885 5883 5882 5881 5879 5877 5876 5874 5872 5869 5867 5865 5863 5861 5859
5893 5894 5893 5894 5895 5895 5895 5896 5897 5897 5896 5896 5895 5895 5894 5894 5893 5892 5892 5891 5890 5889 5888 5887 5886 5885 5883 5882 5881 5879 5878 5876 5875 5873 5871 5869 5867 5866 5863 5861 5859 5857 5854
5889 5889 5889 5890 5891 5892 5892 5893 5894 5894 5893 5893 5892 5892 5891 5891 5890 5889 5888 5887 5886 5885 5884 5883 5882 5881 5879 5878 5876 5875 5873 5872 5870 5869 5867 5865 5863 5861 5859 5856 5854 5851 5849
5884 5885 5886 5887 5888 5889 5889 5889 5889 5889 5889 5889 5889 5888 5887 5887 5886 5886 5885 5884 5882 5881 5881 5880 5878 5877 5875 5874 5872 5870 5869 5867 5865 5864 5862 5860 5858 5855 5853 5850 5848 5845 5843
5880 5880 5881 5882 5883 5884 5885 5884 5883 5884 5885 5885 5885 5884 5883 5883 5882 5881 5880 5879 5878 5877 5876 5875 5874 5873 5871 5869 5868 5866 5864 5862 5860 5858 5856 5854 5852 5849 5847 5844 5842 5839 5836
5875 5876 5876 5877 5878 5879 5879 5879 5879 5879 5879 5879 5879 5879 5879 5878 5877 5877 5876 5875 5874 5873 5871 5870 5869 5867 5866 5864 5862 5861 5859 5857 5854 5852 5850 5847 5845 5842 5840 5837 5835 5832 5830
5868 5868 5869 5871 5872 5872 5872 5872 5873 5873 5873 5873 5873 5873 5873 5872 5872 5871 5870 5869 5868 5867 5866 5864 5863 5862 5860 5858 5856 5854 5852 5850 5848 5845 5843 5840 5837 5835 5832 5830 5827 5825 5822
5861 5862 5863 5864 5864 5865 5865 5865 5867 5867 5867 5867 5867 5867 5867 5866 5865 5865 5864 5863 5861 5860 5859 5858 5857 5855 5853 5851 5849 5847 5844 5842 5839 5837 5835 5832 5829 5827 5824 5822 5820 5818 5815
5854 5855 5856 5857 5857 5858 5859 5859 5860 5860 5860 5860 5860 5860 5859 5859 5858 5857 5857 5856 5855 5853 5852 5850 5849 5847 5845 5843 5841 5839 5836 5834 5831 5829 5826 5823 5821 5818 5816 5814 5812 5810 5808
5848 5848 5848 5849 5850 5850 5851 5852 5852 5852 5852 5853 5852 5852 5851 5851 5850 5850 5849 5848 5847 5845 5844 5842 5840 5839 5837 5835 5833 5830 5828 5826 5823 5821 5818 5815 5813 5810 5807 5805 5804 5802 5800
5840 5840 5841 5842 5842 5842 5843 5843 5844 5844 5844 5844 5844 5843 5842 5842 5842 5841 5840 5839 5838 5836 5835 5834 5832 5830 5828 5826 5824 5821 5819 5817 5815 5812 5809 5807 5804 5801 5799 5797 5795 5793 5790
5830 5831 5832 5833 5834 5834 5834 5834 5835 5835 5834 5834 5834 5834 5834 5833 5832 5832 5831 5830 5828 5827 5825 5824 5822 5821 5819 5816 5814 5812 5810 5807 5805 5802 5800 5797 5795 5792 5790 5787 5785 5783 5781
5821 5822 5823 5824 5824 5824 5824 5824 5825 5825 5825 5825 5825 5824 5824 5823 5822 5822 5821 5820 5818 5817 5815 5814 5813 5811 5809 5807 5804 5802 5799 5797 5794 5792 5790 5787 5785 5782 5780 5778 5775 5773 5770
5810 5811 5812 5813 5813 5814 5814 5814 5814 5814 5814 5814 5814 5814 5813 5813 5812 5811 5810 5809 5808 5806 5805 5803 5802 5800 5799 5797 5794 5792 5789 5787 5784 5782 5779 5777 5774 5772 5770 5768 5765 5762 5760
5799 5800 5801 5802 5802 5803 5803 5803 5803 5803 5803 5803 5803 5803 5802 5802 5801 5800 5799 5798 5797 5795 5794 5792 5791 5789 5788 5786 5784 5781 5778 5776 5773 5770 5768 5766 5764 5761 5759 5757 5754 5752 5749
5788 5789 5789 5790 5791 5791 5791 5791 5791 5791 5791 5791 5791 5791 5790 5790 5789 5788 5788 5786 5785 5784 5783 5781 5780 5778 5776 5774 5772 5769 5767 5764 5761 5759 5757 5754 5752 5750 5748 5745 5743 5740 5738